User: anonymous   Login
Location: Tel Aviv
(32.0670°N, 34.7670°E)
Time: 12:11:34
(UTC+02:00)
Language:

A-11 Canister half - Orbit

View from above orbital plane
View from above orbital plane
View from above satellite
View from above satellite

Ground track
Ground track

The orbit data is extracted from the following two-line orbital elements,

1 00051U 60009C   22018.81984010  .00000029  00000-0  11174-2 0  9992
2 00051  47.2146 351.9157 0105166  87.8957 273.3870 12.18273663734841
Epoch (UTC): 18 January 2022 19:40:34
Eccentricity: 0.0105166
inclination: 47.2146°
perigee height: 1516 km
apogee height: 1684 km
right ascension of ascending node: 351.9157°
argument of perigee: 87.8957°
revolutions per day: 12.18273663
mean anomaly at epoch: 273.3870°
orbit number at epoch: 73484

The dashed part of the orbit path shows where the satellite is in the earth's shadow,  

DLR